Time,TemperatureF,DewpointF,PressureIn,WindDirection,WindDirectionDegrees,WindSpeedMPH,WindSpeedGustMPH,Humidity,HourlyPrecipIn,Conditions,Clouds,dailyrainin,SoftwareType,DateUTC
2013-01-17 00:02:00,56.0,28.0,30.20,West,261,2.0,-999.0,34,-99.99,,,-99.99,,2013-01-17 08:02:00,
2013-01-17 00:22:00,56.0,27.0,30.20,West,265,2.0,-999.0,33,-99.99,,,-99.99,,2013-01-17 08:22:00,
2013-01-17 00:32:00,57.0,26.0,30.20,West,265,1.0,-999.0,30,-99.99,,,-99.99,,2013-01-17 08:32:00,
2013-01-17 00:43:00,57.0,26.0,30.20,West,265,1.0,-999.0,30,-99.99,,,-99.99,,2013-01-17 08:43:00,
2013-01-17 00:52:00,58.0,28.0,30.20,West,265,0.0,-999.0,31,-99.99,,,-99.99,,2013-01-17 08:52:00,
2013-01-17 01:02:00,56.0,28.0,30.20,West,279,3.0,-999.0,34,-99.99,,,-99.99,,2013-01-17 09:02:00,
2013-01-17 01:22:00,56.0,29.0,30.20,WNW,286,3.0,-999.0,35,-99.99,,,-99.99,,2013-01-17 09:22:00,
2013-01-17 01:32:00,56.0,29.0,30.19,WNW,296,2.0,-999.0,35,-99.99,,,-99.99,,2013-01-17 09:32:00,
2013-01-17 01:42:00,56.0,29.0,30.19,WNW,296,2.0,-999.0,35,-99.99,,,-99.99,,2013-01-17 09:42:00,
2013-01-17 01:52:00,56.0,28.0,30.19,WNW,300,3.0,-999.0,34,-99.99,,,-99.99,,2013-01-17 09:52:00,
2013-01-17 02:02:00,56.0,28.0,30.19,NW,307,4.0,-999.0,34,-99.99,,,-99.99,,2013-01-17 10:02:00,
2013-01-17 02:22:00,56.0,29.0,30.19,NNW,330,4.0,-999.0,36,-99.99,,,-99.99,,2013-01-17 10:22:00,
2013-01-17 02:32:00,56.0,29.0,30.18,NNW,333,5.0,-999.0,35,-99.99,,,-99.99,,2013-01-17 10:32:00,
2013-01-17 02:42:00,56.0,29.0,30.18,NNW,333,5.0,-999.0,35,-99.99,,,-99.99,,2013-01-17 10:42:00,
2013-01-17 02:52:00,56.0,28.0,30.18,NNW,334,3.0,-999.0,34,-99.99,,,-99.99,,2013-01-17 10:52:00,
2013-01-17 03:02:00,57.0,29.0,30.17,NNW,336,3.0,-999.0,34,-99.99,,,-99.99,,2013-01-17 11:02:00,
2013-01-17 03:22:00,56.0,28.0,30.17,NNW,348,4.0,-999.0,34,-99.99,,,-99.99,,2013-01-17 11:22:00,
2013-01-17 03:32:00,57.0,27.0,30.16,NNW,348,3.0,-999.0,32,-99.99,,,-99.99,,2013-01-17 11:32:00,
2013-01-17 03:42:00,57.0,27.0,30.16,NNW,348,3.0,-999.0,32,-99.99,,,-99.99,,2013-01-17 11:42:00,
2013-01-17 03:52:00,57.0,27.0,30.16,NNW,348,3.0,-999.0,32,-99.99,,,-99.99,,2013-01-17 11:52:00,
2013-01-17 04:02:00,59.0,28.0,30.16,NNW,348,2.0,-999.0,30,-99.99,,,-99.99,,2013-01-17 12:02:00,
2013-01-17 04:22:00,59.0,28.0,30.15,NNW,348,2.0,-999.0,30,-99.99,,,-99.99,,2013-01-17 12:22:00,
2013-01-17 04:32:00,60.0,27.0,30.15,NNW,348,0.0,-999.0,28,-99.99,,,-99.99,,2013-01-17 12:32:00,
2013-01-17 04:52:00,60.0,28.0,30.15,NNW,348,0.0,-999.0,29,-99.99,,,-99.99,,2013-01-17 12:52:00,
2013-01-17 05:02:00,60.0,27.0,30.14,NNW,348,1.0,-999.0,28,-99.99,,,-99.99,,2013-01-17 13:02:00,
2013-01-17 05:22:00,60.0,26.0,30.14,NNW,348,1.0,-999.0,27,-99.99,,,-99.99,,2013-01-17 13:22:00,
2013-01-17 05:33:00,61.0,27.0,30.13,NNW,348,0.0,-999.0,27,-99.99,,,-99.99,,2013-01-17 13:33:00,
2013-01-17 05:52:00,60.0,27.0,30.14,NNW,348,0.0,-999.0,28,-99.99,,,-99.99,,2013-01-17 13:52:00,
2013-01-17 06:03:00,60.0,27.0,30.13,NNW,348,0.0,-999.0,28,-99.99,,,-99.99,,2013-01-17 14:03:00,
2013-01-17 06:22:00,60.0,28.0,30.14,NNW,348,0.0,-999.0,29,-99.99,,,-99.99,,2013-01-17 14:22:00,
2013-01-17 06:32:00,59.0,28.0,30.14,NNW,348,0.0,-999.0,30,-99.99,,,-99.99,,2013-01-17 14:32:00,
2013-01-17 06:42:00,59.0,28.0,30.14,NNW,348,0.0,-999.0,30,-99.99,,,-99.99,,2013-01-17 14:42:00,
2013-01-17 06:52:00,59.0,27.0,30.14,NNW,348,0.0,-999.0,29,-99.99,,,-99.99,,2013-01-17 14:52:00,
2013-01-17 07:03:00,59.0,27.0,30.14,NNW,348,0.0,-999.0,29,-99.99,,,-99.99,,2013-01-17 15:03:00,
2013-01-17 07:12:00,59.0,27.0,30.14,NNW,348,0.0,-999.0,29,-99.99,,,-99.99,,2013-01-17 15:12:00,
2013-01-17 07:22:00,58.0,28.0,30.15,NNW,348,1.0,-999.0,31,-99.99,,,-99.99,,2013-01-17 15:22:00,
2013-01-17 07:33:00,57.0,28.0,30.16,NNW,348,0.0,-999.0,33,-99.99,,,-99.99,,2013-01-17 15:33:00,
2013-01-17 07:43:00,57.0,28.0,30.16,NNW,348,0.0,-999.0,33,-99.99,,,-99.99,,2013-01-17 15:43:00,
2013-01-17 07:52:00,57.0,28.0,30.16,NNW,348,0.0,-999.0,33,-99.99,,,-99.99,,2013-01-17 15:52:00,
2013-01-17 08:02:00,57.0,28.0,30.16,NNW,348,1.0,-999.0,33,-99.99,,,-99.99,,2013-01-17 16:02:00,
2013-01-17 08:22:00,58.0,28.0,30.16,NNW,348,1.0,-999.0,32,-99.99,,,-99.99,,2013-01-17 16:22:00,
2013-01-17 08:33:00,59.0,28.0,30.17,NNW,348,1.0,-999.0,30,-99.99,,,-99.99,,2013-01-17 16:33:00,
2013-01-17 08:43:00,59.0,28.0,30.17,NNW,348,1.0,-999.0,30,-99.99,,,-99.99,,2013-01-17 16:43:00,
2013-01-17 08:52:00,60.0,29.0,30.17,NNW,348,0.0,-999.0,31,-99.99,,,-99.99,,2013-01-17 16:52:00,
2013-01-17 09:02:00,61.0,31.0,30.17,North,349,0.0,-999.0,32,-99.99,,,-99.99,,2013-01-17 17:02:00,
2013-01-17 09:33:00,61.0,31.0,30.19,North,349,0.0,-999.0,32,-99.99,,,-99.99,,2013-01-17 17:33:00,
2013-01-17 09:53:00,62.0,34.0,30.19,North,349,0.0,-999.0,35,-99.99,,,-99.99,,2013-01-17 17:53:00,
2013-01-17 10:03:00,62.0,35.0,30.19,NNW,348,0.0,-999.0,37,-99.99,,,-99.99,,2013-01-17 18:03:00,
2013-01-17 10:22:00,63.0,36.0,30.19,NNW,348,0.0,-999.0,37,-99.99,,,-99.99,,2013-01-17 18:22:00,
2013-01-17 10:33:00,62.0,37.0,30.19,NNW,348,0.0,-999.0,39,-99.99,,,-99.99,,2013-01-17 18:33:00,
2013-01-17 10:52:00,62.0,35.0,30.18,NNW,348,0.0,-999.0,36,-99.99,,,-99.99,,2013-01-17 18:52:00,
2013-01-17 11:02:00,63.0,36.0,30.18,NNW,348,0.0,-999.0,36,-99.99,,,-99.99,,2013-01-17 19:02:00,
2013-01-17 11:12:00,63.0,36.0,30.18,NNW,348,0.0,-999.0,36,-99.99,,,-99.99,,2013-01-17 19:12:00,
2013-01-17 11:22:00,63.0,36.0,30.17,NNW,348,0.0,-999.0,36,-99.99,,,-99.99,,2013-01-17 19:22:00,
2013-01-17 11:32:00,63.0,36.0,30.16,NNW,348,0.0,-999.0,36,-99.99,,,-99.99,,2013-01-17 19:32:00,
2013-01-17 11:42:00,63.0,36.0,30.16,NNW,348,0.0,-999.0,36,-99.99,,,-99.99,,2013-01-17 19:42:00,
2013-01-17 11:52:00,65.0,39.0,30.16,NNW,348,0.0,-999.0,38,-99.99,,,-99.99,,2013-01-17 19:52:00,
2013-01-17 12:02:00,66.0,39.0,30.15,North,355,0.0,-999.0,37,-99.99,,,-99.99,,2013-01-17 20:02:00,
2013-01-17 12:12:00,66.0,39.0,30.15,North,355,0.0,-999.0,37,-99.99,,,-99.99,,2013-01-17 20:12:00,
2013-01-17 12:22:00,64.0,40.0,30.15,North,355,0.0,-999.0,41,-99.99,,,-99.99,,2013-01-17 20:22:00,
2013-01-17 12:33:00,65.0,37.0,30.14,North,360,0.0,-999.0,36,-99.99,,,-99.99,,2013-01-17 20:33:00,
2013-01-17 12:43:00,65.0,37.0,30.14,North,360,0.0,-999.0,36,-99.99,,,-99.99,,2013-01-17 20:43:00,
2013-01-17 12:53:00,66.0,40.0,30.14,North,360,0.0,-999.0,38,-99.99,,,-99.99,,2013-01-17 20:53:00,
2013-01-17 13:02:00,65.0,38.0,30.14,North,360,1.0,-999.0,37,-99.99,,,-99.99,,2013-01-17 21:02:00,
2013-01-17 13:12:00,65.0,38.0,30.14,North,360,1.0,-999.0,37,-99.99,,,-99.99,,2013-01-17 21:12:00,
2013-01-17 13:22:00,65.0,40.0,30.13,North,349,0.0,-999.0,40,-99.99,,,-99.99,,2013-01-17 21:22:00,
2013-01-17 13:33:00,64.0,40.0,30.12,North,350,1.0,-999.0,42,-99.99,,,-99.99,,2013-01-17 21:33:00,
2013-01-17 13:42:00,64.0,40.0,30.12,North,350,1.0,-999.0,42,-99.99,,,-99.99,,2013-01-17 21:42:00,
2013-01-17 13:52:00,64.0,39.0,30.12,NNW,342,1.0,-999.0,40,-99.99,,,-99.99,,2013-01-17 21:52:00,
2013-01-17 14:03:00,63.0,39.0,30.11,NW,309,1.0,-999.0,41,-99.99,,,-99.99,,2013-01-17 22:03:00,
2013-01-17 14:12:00,63.0,39.0,30.11,NW,309,1.0,-999.0,41,-99.99,,,-99.99,,2013-01-17 22:12:00,
2013-01-17 14:22:00,63.0,39.0,30.10,WNW,290,2.0,-999.0,41,-99.99,,,-99.99,,2013-01-17 22:22:00,
2013-01-17 14:33:00,64.0,39.0,30.10,WNW,287,1.0,-999.0,40,-99.99,,,-99.99,,2013-01-17 22:33:00,
2013-01-17 14:42:00,64.0,39.0,30.10,WNW,287,1.0,-999.0,40,-99.99,,,-99.99,,2013-01-17 22:42:00,
2013-01-17 14:52:00,63.0,38.0,30.09,West,281,1.0,-999.0,39,-99.99,,,-99.99,,2013-01-17 22:52:00,
2013-01-17 15:02:00,64.0,37.0,30.09,West,277,2.0,-999.0,37,-99.99,,,-99.99,,2013-01-17 23:02:00,
2013-01-17 15:12:00,64.0,37.0,30.09,West,277,2.0,-999.0,37,-99.99,,,-99.99,,2013-01-17 23:12:00,
2013-01-17 15:22:00,64.0,37.0,30.09,West,276,1.0,-999.0,37,-99.99,,,-99.99,,2013-01-17 23:22:00,
2013-01-17 15:32:00,64.0,38.0,30.09,West,276,0.0,-999.0,38,-99.99,,,-99.99,,2013-01-17 23:32:00,
2013-01-17 15:42:00,64.0,38.0,30.09,West,276,0.0,-999.0,38,-99.99,,,-99.99,,2013-01-17 23:42:00,
2013-01-17 15:52:00,63.0,36.0,30.09,West,273,2.0,-999.0,37,-99.99,,,-99.99,,2013-01-17 23:52:00,
2013-01-17 16:02:00,64.0,39.0,30.09,West,273,0.0,-999.0,40,-99.99,,,-99.99,,2013-01-18 00:02:00,
2013-01-17 16:12:00,64.0,39.0,30.09,West,273,0.0,-999.0,40,-99.99,,,-99.99,,2013-01-18 00:12:00,
2013-01-17 16:22:00,63.0,41.0,30.09,West,271,1.0,-999.0,44,-99.99,,,-99.99,,2013-01-18 00:22:00,
2013-01-17 16:32:00,63.0,41.0,30.09,West,271,1.0,-999.0,44,-99.99,,,-99.99,,2013-01-18 00:32:00,
2013-01-17 16:42:00,63.0,42.0,30.09,West,271,0.0,-999.0,47,-99.99,,,-99.99,,2013-01-18 00:42:00,
2013-01-17 16:52:00,63.0,41.0,30.09,West,271,1.0,-999.0,44,-99.99,,,-99.99,,2013-01-18 00:52:00,
2013-01-17 17:02:00,63.0,38.0,30.10,West,271,0.0,-999.0,40,-99.99,,,-99.99,,2013-01-18 01:02:00,
2013-01-17 17:12:00,63.0,38.0,30.10,West,271,0.0,-999.0,40,-99.99,,,-99.99,,2013-01-18 01:12:00,
2013-01-17 17:22:00,64.0,41.0,30.11,West,271,0.0,-999.0,43,-99.99,,,-99.99,,2013-01-18 01:22:00,
2013-01-17 17:32:00,64.0,40.0,30.10,West,271,0.0,-999.0,41,-99.99,,,-99.99,,2013-01-18 01:32:00,
2013-01-17 17:42:00,64.0,40.0,30.10,West,271,0.0,-999.0,41,-99.99,,,-99.99,,2013-01-18 01:42:00,
2013-01-17 17:52:00,62.0,37.0,30.10,West,271,0.0,-999.0,40,-99.99,,,-99.99,,2013-01-18 01:52:00,
2013-01-17 18:02:00,60.0,37.0,30.10,West,271,0.0,-999.0,42,-99.99,,,-99.99,,2013-01-18 02:02:00,
2013-01-17 18:12:00,60.0,37.0,30.10,West,271,0.0,-999.0,42,-99.99,,,-99.99,,2013-01-18 02:12:00,
2013-01-17 18:22:00,59.0,39.0,30.10,West,272,2.0,-999.0,48,-99.99,,,-99.99,,2013-01-18 02:22:00,
2013-01-17 18:32:00,61.0,40.0,30.10,West,272,0.0,-999.0,46,-99.99,,,-99.99,,2013-01-18 02:32:00,
2013-01-17 18:42:00,61.0,40.0,30.10,West,272,0.0,-999.0,46,-99.99,,,-99.99,,2013-01-18 02:42:00,
2013-01-17 18:52:00,61.0,40.0,30.10,West,272,0.0,-999.0,45,-99.99,,,-99.99,,2013-01-18 02:52:00,
2013-01-17 19:02:00,60.0,39.0,30.10,West,272,1.0,-999.0,46,-99.99,,,-99.99,,2013-01-18 03:02:00,
2013-01-17 19:22:00,60.0,38.0,30.10,West,272,0.0,-999.0,44,-99.99,,,-99.99,,2013-01-18 03:22:00,
2013-01-17 19:32:00,59.0,33.0,30.11,West,272,0.0,-999.0,38,-99.99,,,-99.99,,2013-01-18 03:32:00,
2013-01-17 19:52:00,58.0,31.0,30.11,West,272,0.0,-999.0,36,-99.99,,,-99.99,,2013-01-18 03:52:00,
2013-01-17 20:02:00,57.0,34.0,30.11,West,272,0.0,-999.0,42,-99.99,,,-99.99,,2013-01-18 04:02:00,
2013-01-17 20:22:00,57.0,35.0,30.11,West,273,1.0,-999.0,44,-99.99,,,-99.99,,2013-01-18 04:22:00,
2013-01-17 20:32:00,57.0,35.0,30.11,West,273,1.0,-999.0,43,-99.99,,,-99.99,,2013-01-18 04:32:00,
2013-01-17 20:52:00,57.0,33.0,30.11,West,273,1.0,-999.0,40,-99.99,,,-99.99,,2013-01-18 04:52:00,
2013-01-17 21:03:00,57.0,32.0,30.11,West,273,1.0,-999.0,39,-99.99,,,-99.99,,2013-01-18 05:03:00,
2013-01-17 21:33:00,58.0,35.0,30.12,West,273,0.0,-999.0,42,-99.99,,,-99.99,,2013-01-18 05:33:00,
2013-01-17 21:52:00,58.0,34.0,30.12,West,273,1.0,-999.0,41,-99.99,,,-99.99,,2013-01-18 05:52:00,
2013-01-17 22:02:00,60.0,35.0,30.12,West,274,0.0,-999.0,39,-99.99,,,-99.99,,2013-01-18 06:02:00,
2013-01-17 22:22:00,59.0,33.0,30.12,West,274,0.0,-999.0,38,-99.99,,,-99.99,,2013-01-18 06:22:00,
2013-01-17 22:32:00,59.0,33.0,30.12,West,273,1.0,-999.0,38,-99.99,,,-99.99,,2013-01-18 06:32:00,
2013-01-17 22:52:00,59.0,33.0,30.12,West,277,2.0,-999.0,37,-99.99,,,-99.99,,2013-01-18 06:52:00,
2013-01-17 23:02:00,58.0,31.0,30.13,West,277,1.0,-999.0,36,-99.99,,,-99.99,,2013-01-18 07:02:00,
2013-01-17 23:22:00,59.0,31.0,30.13,West,277,0.0,-999.0,34,-99.99,,,-99.99,,2013-01-18 07:22:00,
2013-01-17 23:32:00,59.0,29.0,30.13,West,277,1.0,-999.0,32,-99.99,,,-99.99,,2013-01-18 07:32:00,
2013-01-17 23:52:00,60.0,30.0,30.13,West,277,1.0,-999.0,32,-99.99,,,-99.99,,2013-01-18 07:52:00,